Durango, CO

4:27 PM MDT on August 20, 2017 (GMT -0600)
Durango-La Plata County

Weather History for KDRO - April, 2014

Change the Weather History Date:

Wednesday, April 2, 2014

  Actual Average Record
Temperature  
Mean Temperature 39 °F 42 °F  
Max Temperature 49 °F 57 °F 73 °F (2002)
Min Temperature 28 °F 26 °F 13 °F (1970)
Degree Days  
Heating Degree Days 26 23  
Month to date heating degree days 44 46  
Since 1 July heating degree days 5791 6075  
Cooling Degree Days 0 0  
Month to date cooling degree days 0 0  
Year to date cooling degree days 0 0  
Moisture  
Dew Point 24 °F    
Average Humidity 60    
Maximum Humidity 100    
Minimum Humidity 19    
Precipitation  
Precipitation T in 0.04 in 0.58 in (2004)
Month to date precipitation T 0.07  
Year to date precipitation 1.53 3.60  
Sea Level Pressure  
Sea Level Pressure 29.75 in    
Wind  
Wind Speed 7 mph (West)    
Max Wind Speed 23 mph    
Max Gust Speed 28 mph    
Visibility 8 miles    
Events Rain , Snow    
T = Trace of Precipitation, MM = Missing Value Source: NWS Daily Summary

Daily Weather History Graph

Daily Weather History Graph

Search for Another Location

Airport or City:

Trip Planner

Search our weather history database for the weather conditions in past years. The results will help you decide how hot, cold, wet, or windy it might be!

Date:

Astronomy

Apr. 02, 2014 Rise Set
Actual Time 6:55 AM MDT 7:34 PM MDT
Civil Twilight 6:28 AM MDT 8:00 PM MDT
Nautical Twilight 5:57 AM MDT 8:31 PM MDT
Astronomical Twilight 5:26 AM MDT 9:03 PM MDT
Moon 8:45 AM MDT (4/2) 10:56 PM MDT (4/2)
Length of Visible Light 13h 31m
Length of Day
12h 39m
Waxing Crescent, 10% of the Moon is Illuminated
Apr 2
Waxing Crescent
Apr 7
First Quarter
Apr 15
Full
Apr 22
Last Quarter
Apr 29
New

Hourly Weather History & Observations

Time (MDT) Temp. Windchill Dew Point Humidity Pressure Visibility Wind Dir Wind Speed Gust Speed Precip Events Conditions
12:53 AM 43.0 °F 38.8 °F 3.9 °F 20% 29.72 in 10.0 mi SSW 6.9 mph - N/A   Mostly Cloudy
1:53 AM 43.0 °F 41.3 °F 3.9 °F 20% 29.69 in 10.0 mi West 3.5 mph - N/A   Overcast
2:53 AM 39.0 °F - 6.1 °F 26% 29.71 in 10.0 mi Calm Calm - N/A   Overcast
3:53 AM 36.0 °F - 10.0 °F 34% 29.70 in 10.0 mi Calm Calm - N/A   Overcast
4:53 AM 39.0 °F - 10.0 °F 30% 29.68 in 10.0 mi Calm Calm - N/A   Overcast
6:53 AM 37.0 °F - 12.9 °F 37% 29.71 in 10.0 mi Calm Calm - N/A   Overcast
7:53 AM 39.0 °F 31.4 °F 21.0 °F 49% 29.73 in 10.0 mi West 12.7 mph - N/A   Overcast
8:53 AM 39.0 °F 32.8 °F 25.0 °F 57% 29.74 in 9.0 mi SSW 9.2 mph - N/A   Overcast
9:10 AM 37.9 °F 29.6 °F 26.1 °F 62% 29.82 in 2.5 mi South 13.8 mph 18.4 mph 0.00 in Snow Light Snow
9:18 AM 37.0 °F 29.3 °F 27.0 °F 67% 29.83 in 3.0 mi SW 11.5 mph - 0.00 in Snow Light Snow
9:53 AM 39.0 °F 34.8 °F 25.0 °F 57% 29.75 in 10.0 mi SW 5.8 mph - 0.00 in   Overcast
10:03 AM 39.9 °F 33.9 °F 24.1 °F 53% 29.82 in 10.0 mi South 9.2 mph - N/A   Overcast
10:53 AM 41.0 °F 38.0 °F 25.0 °F 53% 29.75 in 10.0 mi Variable 4.6 mph - N/A   Overcast
11:53 AM 42.1 °F 34.9 °F 24.1 °F 49% 29.73 in 10.0 mi NW 13.8 mph - N/A   Overcast
12:53 PM 43.0 °F 37.2 °F 24.1 °F 47% 29.73 in 10.0 mi West 10.4 mph - 0.00 in   Overcast
1:53 PM 45.0 °F 39.7 °F 24.1 °F 44% 29.70 in 10.0 mi SW 10.4 mph 19.6 mph 0.00 in   Overcast
2:53 PM 48.9 °F - 26.1 °F 41% 29.67 in 10.0 mi WSW 20.7 mph 25.3 mph 0.00 in   Mostly Cloudy
3:53 PM 46.0 °F 40.2 °F 25.0 °F 44% 29.70 in 10.0 mi West 12.7 mph 21.9 mph N/A   Overcast
4:53 PM 41.0 °F 33.1 °F 28.0 °F 60% 29.71 in 10.0 mi WNW 15.0 mph 26.5 mph 0.00 in Rain Light Rain
5:04 PM 42.1 °F 37.7 °F 28.0 °F 58% 29.74 in 10.0 mi WSW 6.9 mph - 0.00 in Rain Light Rain
5:53 PM 42.1 °F 36.6 °F 26.1 °F 53% 29.72 in 10.0 mi West 9.2 mph - 0.00 in   Overcast
6:53 PM 39.9 °F 33.4 °F 27.0 °F 60% 29.72 in 10.0 mi WNW 10.4 mph - 0.00 in   Overcast
7:53 PM 37.0 °F 31.0 °F 28.9 °F 73% 29.73 in 8.0 mi NNW 8.1 mph - 0.00 in Snow Light Snow
8:37 PM 33.1 °F 27.7 °F 30.9 °F 92% 29.78 in 4.0 mi NNW 5.8 mph - 0.00 in Snow Light Snow
8:53 PM 33.1 °F - 30.9 °F 92% 29.79 in 7.0 mi Calm Calm - 0.00 in Snow Light Snow
9:45 PM 32.0 °F 27.5 °F 30.9 °F 96% 29.80 in 5.0 mi ESE 4.6 mph - 0.00 in Snow Light Snow
9:53 PM 32.0 °F 28.7 °F 30.9 °F 96% 29.80 in 9.0 mi East 3.5 mph - 0.00 in   Mostly Cloudy
10:53 PM 30.9 °F - 30.0 °F 96% 29.80 in 10.0 mi Calm Calm - N/A   Scattered Clouds
11:10 PM 30.9 °F 19.8 °F 30.0 °F 96% 29.80 in 1.8 mi West 16.1 mph 20.7 mph 0.00 in Snow Light Snow
11:15 PM 30.9 °F 19.8 °F 28.9 °F 92% 29.80 in 1.0 mi WNW 16.1 mph 21.9 mph 0.00 in Snow Light Snow
11:21 PM 30.0 °F 20.5 °F 28.9 °F 96% 29.80 in 2.0 mi WNW 11.5 mph - 0.00 in Snow Light Snow
11:28 PM 30.0 °F 23.2 °F 28.9 °F 96% 29.80 in 9.0 mi NW 6.9 mph - 0.00 in   Mostly Cloudy
11:53 PM 30.0 °F - 27.0 °F 88% 29.80 in 10.0 mi Calm Calm - 0.00 in   Clear